Dewpoint
15 16 15 15 15 15 15 15 15 14 13 13 11 9 9 11 11 11 11 11 11 12 13 13 13 13 13 13 14 14 13 13 14 14 12 12 12 11 11 12 12 13
15 15 15 15 15 15 15 15 15 14 14 14 12 11 10 11 12 12 11 11 11 11 12 13 13 13 14 14 13 13 13 13 14 14 14 13 13 12 11 12 12 13
15 15 15 15 15 15 15 15 15 15 14 14 14 14 12 12 13 13 12 11 11 11 12 13 13 14 14 14 13 13 13 13 13 14 13 13 12 12 12 12 12 12
14 14 14 15 15 15 15 15 15 14 14 14 15 15 14 13 14 14 14 13 12 13 13 13 13 13 14 14 13 13 13 12 12 13 12 12 12 12 12 12 12 12
12 13 13 14 15 15 15 14 14 14 14 14 14 14 15 14 14 14 15 14 13 14 14 14 14 14 14 14 13 13 13 12 12 12 12 12 12 12 12 12 12 12
12 12 13 13 14 15 15 14 13 14 14 13 13 14 14 14 14 14 15 15 14 14 14 14 14 14 14 14 13 13 13 12 13 13 12 12 12 12 12 12 12 12
12 12 12 13 13 14 15 14 13 13 13 13 13 13 13 13 13 13 14 15 15 14 14 15 15 15 14 14 13 13 13 13 12 13 13 12 13 13 13 12 12 12
12 12 12 12 13 14 14 14 13 14 13 13 12 13 13 13 13 13 14 14 14 14 14 15 15 15 14 14 14 13 13 13 13 13 13 13 13 14 14 14 14 13
12 12 12 12 12 13 14 13 13 14 13 13 13 13 14 14 14 14 14 14 15 15 15 15 14 14 14 14 14 14 13 13 13 13 12 13 13 14 15 15 14 14
12 12 12 12 12 11 12 13 13 13 14 14 14 14 15 15 15 15 15 15 16 15 15 15 14 14 13 13 14 14 14 14 13 14 13 12 13 14 14 14 13 13
12 12 12 12 11 11 11 12 12 13 14 15 15 15 16 16 16 16 15 15 15 16 15 15 15 15 14 14 14 14 15 14 15 15 14 14 13 14 14 14 13 13
12 12 12 12 11 11 11 11 12 13 14 15 15 16 16 16 16 16 15 15 15 15 15 15 15 15 15 15 15 15 15 15 15 15 15 15 14 14 14 14 14 14
13 13 12 12 11 11 11 12 12 12 13 15 16 17 16 16 16 16 16 15 15 15 15 15 15 15 16 16 15 15 15 15 15 15 15 15 15 14 15 14 15 15
12 13 13 12 12 12 12 12 12 12 13 15 16 17 16 16 16 16 16 15 15 15 15 15 15 15 15 15 15 16 16 16 15 16 16 15 15 14 15 15 15 15
12 13 13 13 13 13 13 12 12 13 14 16 17 16 16 16 16 16 16 15 15 15 15 15 15 15 15 15 15 15 15 15 15 15 16 16 15 15 15 15 15 15
14 14 14 14 14 14 15 14 13 13 14 16 16 16 16 16 15 15 16 16 15 15 15 15 15 15 15 15 15 15 15 15 15 15 16 16 16 16 15 15 15 16
14 15 15 16 16 16 16 16 15 15 15 15 15 15 16 16 15 15 15 15 15 15 15 15 15 15 15 15 15 15 15 15 15 15 15 15 16 16 16 15 15 16
15 16 15 16 17 17 17 16 17 16 16 16 15 16 16 16 15 15 15 15 15 15 15 15 15 15 15 15 15 15 15 15 15 16 15 15 16 16 16 16 16 16
16 17 16 15 16 17 17 17 16 16 17 16 16 16 16 16 15 15 15 14 15 15 15 15 15 15 15 15 15 15 15 15 16 15 15 15 15 16 16 16 16 16
16 16 16 15 14 15 17 17 16 16 16 16 16 16 16 15 15 15 15 14 14 15 15 15 15 15 15 15 15 15 15 16 16 15 15 15 15 16 16 16 16 16
16 16 15 15 14 14 16 17 17 16 16 15 16 16 16 15 15 15 15 15 15 15 16 16 16 16 15 15 15 15 15 15 15 15 15 15 16 16 16 16 16 16
16 16 15 15 15 15 15 16 17 17 16 15 16 16 16 15 15 15 15 15 15 15 15 15 15 16 16 16 16 16 15 15 15 15 15 15 16 16 16 16 16 16
17 17 16 16 16 15 15 16 17 17 16 15 16 16 16 16 15 15 15 15 15 15 15 15 15 15 16 16 16 16 16 15 15 16 16 15 15 16 16 16 16 16
17 16 16 16 16 16 16 16 17 17 16 15 15 16 17 16 16 15 15 16 16 16 16 16 15 15 16 16 16 16 16 16 16 16 15 15 15 16 16 15 15 15
16 16 15 15 15 15 15 15 15 16 16 15 15 16 16 16 16 16 16 16 16 17 17 17 16 16 16 16 16 16 16 16 16 16 16 15 15 15 16 16 16 15
15 15 15 15 15 15 15 15 14 14 14 14 15 15 15 15 15 15 15 15 15 16 16 17 17 17 16 16 16 16 16 16 16 16 16 16 16 16 16 15 15 15
Wind_Speed
25 24 24 23 22 21 19 19 18 19 19 18 17 18 17 14 14 14 13 13 14 14 13 12 12 11 11 11 11 10 9 8 9 9 8 8 9 10 10 10 10 9
26 25 25 24 22 21 20 19 18 18 18 17 16 16 16 14 13 13 13 13 14 14 13 12 11 11 11 11 11 10 10 9 9 9 8 8 8 9 10 10 10 9
27 26 25 24 23 21 21 20 19 18 18 17 16 15 15 15 13 13 13 14 14 14 14 13 12 11 11 11 11 10 10 10 10 10 9 9 9 9 10 10 10 10
27 27 26 25 23 22 21 21 21 20 18 18 17 16 16 15 14 14 14 14 14 14 14 13 12 12 11 11 11 11 10 10 10 10 10 10 9 9 9 10 10 10
27 27 26 25 25 23 22 23 22 21 19 19 18 17 17 17 16 16 15 15 15 14 14 14 13 12 12 12 12 11 11 10 9 10 11 10 9 9 9 10 10 10
28 27 26 25 25 24 24 24 23 22 20 19 18 18 18 18 18 17 16 15 15 14 14 14 13 12 12 13 13 12 11 10 10 11 11 10 10 10 10 10 10 11
28 27 26 26 25 25 25 24 24 22 21 19 19 19 19 19 19 18 17 16 15 15 14 13 13 13 13 13 13 12 11 11 11 11 11 10 10 10 10 10 10 11
28 27 27 26 26 26 25 25 24 23 21 21 20 20 20 19 18 18 17 17 16 15 14 14 14 14 13 13 13 12 12 12 12 12 11 10 9 9 9 9 9 9
29 28 27 27 27 26 25 25 25 23 22 22 22 21 19 19 18 18 17 17 16 16 15 14 15 15 14 14 13 13 12 12 12 12 11 10 9 8 8 8 8 8
30 29 28 27 27 26 26 25 24 23 22 22 21 20 19 18 17 17 17 17 16 16 15 15 15 15 15 15 14 13 12 12 12 12 11 11 10 9 9 9 8 8
30 30 29 28 27 26 26 25 24 23 22 21 20 19 18 17 17 18 18 18 17 16 16 15 15 15 15 14 14 14 13 12 12 12 12 11 10 9 9 9 10 9
30 31 30 29 28 27 26 26 25 25 23 21 20 18 17 16 16 17 18 18 17 17 16 16 15 15 15 14 14 14 14 13 12 12 12 12 11 10 9 10 11 10
30 30 30 29 29 29 28 27 26 26 25 22 20 18 18 17 17 17 17 16 16 16 17 16 16 16 16 15 14 14 14 14 13 13 13 13 13 11 11 11 11 11
29 28 28 28 28 28 29 28 28 27 26 24 22 21 19 18 17 17 16 14 14 14 16 17 16 16 16 16 16 15 15 15 14 14 14 14 14 13 12 12 11 11
29 27 26 26 26 26 27 28 28 28 27 25 24 22 21 19 17 17 16 14 13 13 13 15 16 17 17 17 17 16 16 16 16 16 16 15 14 14 14 14 12 12
28 27 26 26 25 24 24 25 26 27 28 28 26 24 22 21 19 18 18 17 15 13 13 14 15 16 16 17 17 17 17 17 18 18 18 17 16 15 16 15 14 13
27 26 26 27 27 25 23 22 23 25 27 27 26 24 23 22 21 21 21 20 18 17 15 15 16 16 16 17 17 18 18 19 19 19 19 19 18 17 16 15 15 14
28 27 26 27 29 29 27 26 26 27 28 29 28 26 24 23 23 23 22 22 21 20 18 18 18 17 18 19 19 19 19 20 20 20 21 21 20 19 17 16 15 15
30 30 28 27 28 30 29 29 29 28 29 30 28 26 24 23 23 23 23 22 22 22 21 20 20 19 19 19 20 20 20 19 19 20 21 22 22 20 18 17 16 15
29 30 29 27 28 28 27 27 27 26 27 27 26 26 25 24 23 22 22 23 24 24 24 23 22 21 20 20 20 20 20 20 20 20 21 22 23 22 20 17 16 16
28 28 28 26 27 29 26 22 22 23 23 23 23 24 25 25 24 23 22 23 25 26 26 26 24 24 23 22 21 21 21 22 22 21 21 22 23 23 21 19 18 18
27 28 28 27 28 30 29 24 21 21 21 22 23 23 23 24 24 24 23 23 25 26 27 27 27 26 25 24 23 23 23 24 24 24 24 23 24 24 23 22 21 21
24 24 25 25 26 27 27 26 25 23 22 23 24 24 24 26 26 25 25 24 25 26 27 28 28 28 27 26 26 26 27 27 27 27 26 25 25 26 25 24 24 23
20 21 20 20 21 22 23 25 26 25 23 24 25 26 27 28 28 28 27 27 27 28 29 29 29 29 29 29 29 28 28 29 29 29 28 27 27 27 27 26 25 24
18 21 21 20 20 21 23 26 27 27 26 26 28 29 28 27 28 28 29 29 30 30 30 31 32 31 31 31 30 29 29 29 29 29 29 29 28 28 29 27 25 25
19 20 22 22 22 22 23 26 28 28 27 27 27 27 27 26 27 29 30 30 30 31 30 31 33 33 32 32 32 31 31 30 30 30 31 30 30 30 29 28 28 28
Wind_Direction
216 217 217 217 220 223 223 222 220 218 216 216 217 218 217 213 208 206 210 212 215 218 220 219 218 218 222 225 229 229 225 228 234 232 226 227 233 235 238 243 247 246
218 219 219 219 221 224 225 225 224 222 219 218 219 221 219 212 208 210 213 216 218 218 217 218 219 221 225 227 229 228 227 232 234 232 230 234 238 237 238 242 244 245
220 220 219 219 221 224 226 227 229 227 225 223 223 226 224 218 215 216 216 218 221 220 218 219 220 223 228 230 230 230 230 235 236 235 236 240 242 241 241 242 242 244
221 221 220 220 221 224 226 226 227 227 226 225 225 226 226 223 222 221 219 220 221 222 222 223 224 227 231 233 236 237 236 238 239 242 245 246 248 246 244 242 240 242
221 222 222 222 223 224 224 223 223 223 222 223 224 224 225 226 225 223 222 221 221 223 224 224 226 231 234 236 238 239 240 242 243 246 249 249 251 249 245 245 243 243
220 222 222 223 223 223 222 220 219 219 219 220 222 224 225 225 225 226 226 226 227 227 225 225 227 230 234 237 238 238 240 240 241 244 247 247 248 247 246 247 248 246
220 221 222 223 223 223 222 220 218 218 219 220 222 224 226 226 226 228 229 231 233 231 229 229 229 230 235 239 240 240 240 239 239 243 247 247 246 247 247 247 248 247
221 221 221 223 224 224 224 222 220 220 220 220 221 223 225 226 227 228 230 232 233 233 233 233 233 233 235 237 239 239 239 239 240 242 246 247 247 249 247 246 249 249
221 221 222 224 225 225 224 223 222 223 223 222 222 223 224 226 228 229 229 231 232 233 233 233 234 234 232 233 234 234 235 237 239 242 243 242 243 242 240 241 249 255
221 221 222 224 226 225 225 224 223 225 226 225 224 224 225 228 231 231 231 232 235 235 233 232 233 232 231 231 231 230 231 232 235 240 241 240 240 239 240 241 244 250
221 221 223 224 226 225 225 226 227 228 228 228 229 229 230 233 235 235 235 236 238 237 235 234 234 234 233 232 233 231 228 228 231 237 240 241 240 239 240 241 243 246
221 222 223 224 226 226 226 227 228 230 229 228 229 231 234 237 237 237 237 238 240 241 240 240 239 239 238 237 237 233 229 229 230 234 239 241 240 237 236 237 242 245
222 223 224 225 227 228 228 227 228 230 229 227 228 232 237 239 238 236 235 237 241 244 245 245 244 244 244 241 239 236 235 234 234 237 239 239 239 238 236 237 240 242
223 224 225 226 228 230 230 230 229 229 230 229 230 233 237 238 236 234 234 236 241 246 247 247 246 247 246 244 242 241 241 240 240 242 242 240 239 239 238 237 238 240
224 226 227 227 228 229 231 231 231 231 231 231 233 236 237 237 236 236 237 238 242 246 246 245 245 245 246 246 247 246 245 245 244 244 244 243 243 243 242 239 238 241
223 225 228 229 226 226 228 230 231 231 230 231 234 235 235 236 239 241 243 244 246 248 247 246 245 244 244 246 248 250 250 249 248 247 246 246 247 248 248 245 242 242
220 220 225 228 228 226 225 226 228 230 232 233 234 233 232 235 240 245 250 251 251 249 249 249 248 247 246 247 248 250 251 250 251 251 250 250 250 250 251 251 249 246
217 220 222 227 232 232 228 225 223 225 228 231 231 231 235 240 244 247 252 254 253 251 250 250 250 249 249 249 250 250 250 249 250 252 253 252 251 250 248 250 250 248
218 225 225 228 235 237 232 228 226 226 229 230 231 232 236 243 247 248 248 248 248 247 247 249 251 252 252 251 250 249 248 248 250 253 254 253 251 249 246 244 243 240
222 228 230 231 237 242 239 234 231 233 235 235 234 235 235 236 239 242 244 245 245 244 245 249 251 253 255 254 251 249 247 248 251 254 256 254 250 246 241 236 235 232
223 227 229 230 234 238 239 238 234 232 233 234 233 234 236 235 235 236 237 240 243 244 244 247 249 251 254 256 256 254 253 253 255 255 257 256 251 244 238 234 233 232
220 224 225 226 228 230 234 242 244 237 233 236 236 234 236 238 239 241 241 240 241 243 245 247 248 249 252 255 259 260 260 259 259 258 259 258 252 244 239 236 236 236
216 219 222 223 224 228 234 243 248 244 239 240 244 244 243 244 246 249 250 247 244 244 247 249 250 251 251 251 254 258 260 260 260 259 260 258 251 244 241 240 240 240
224 227 231 230 230 233 240 244 246 247 246 244 247 251 251 251 253 254 253 252 249 248 250 252 252 251 249 248 249 251 254 255 256 256 256 254 248 243 242 243 246 248
238 240 244 244 241 242 246 249 249 249 248 246 247 251 252 254 255 255 255 254 253 253 254 253 250 247 245 246 247 247 248 249 249 249 249 248 245 242 242 245 249 253
240 245 249 250 248 248 251 253 254 253 252 252 252 255 257 257 258 258 259 258 257 258 257 254 253 251 249 247 246 246 246 245 244 244 244 244 244 242 242 245 249 250
Height
1568 1570 1571 1572 1574 1575 1576 1578 1579 1580 1581 1582 1583 1584 1585 1586 1587 1587 1588 1588 1589 1590 1591 1592 1592 1593 1593 1594 1594 1595 1595 1595 1595 1596 1596 1596 1596 1597 1597 1597 1597 1597
1567 1569 1570 1571 1573 1574 1575 1576 1578 1579 1580 1581 1582 1583 1584 1585 1586 1586 1587 1588 1588 1589 1590 1591 1591 1592 1592 1593 1593 1593 1594 1594 1595 1595 1595 1595 1596 1596 1596 1596 1596 1596
1566 1567 1568 1570 1571 1573 1574 1575 1577 1578 1579 1580 1581 1582 1583 1584 1585 1585 1586 1587 1587 1588 1589 1590 1590 1591 1591 1592 1592 1592 1593 1593 1594 1594 1594 1594 1595 1595 1595 1595 1595 1595
1564 1565 1567 1569 1570 1572 1573 1574 1575 1576 1577 1579 1580 1581 1582 1582 1583 1584 1585 1586 1586 1587 1588 1589 1589 1590 1590 1590 1591 1591 1592 1592 1593 1593 1593 1593 1594 1594 1594 1594 1594 1594
1563 1564 1566 1567 1569 1570 1572 1572 1573 1575 1576 1577 1578 1580 1581 1581 1582 1583 1583 1584 1585 1586 1587 1587 1588 1588 1589 1589 1590 1590 1590 1591 1591 1591 1592 1592 1592 1593 1593 1593 1593 1593
1561 1563 1564 1566 1568 1569 1570 1571 1572 1573 1574 1576 1577 1578 1579 1580 1581 1581 1582 1583 1584 1585 1585 1586 1586 1587 1588 1588 1588 1589 1589 1590 1590 1590 1590 1591 1591 1591 1591 1591 1591 1592
1560 1562 1563 1565 1566 1568 1568 1569 1571 1572 1573 1574 1575 1576 1578 1578 1579 1580 1581 1582 1582 1583 1584 1584 1585 1585 1586 1587 1587 1587 1588 1588 1589 1589 1589 1590 1590 1590 1590 1590 1590 1591
1559 1560 1562 1564 1565 1566 1567 1568 1569 1570 1572 1573 1574 1575 1576 1577 1578 1578 1579 1580 1581 1581 1582 1583 1583 1584 1585 1585 1585 1586 1586 1587 1587 1588 1588 1588 1589 1589 1589 1589 1589 1589
1557 1559 1560 1562 1563 1565 1566 1567 1568 1569 1571 1571 1572 1574 1574 1575 1576 1577 1578 1579 1579 1580 1580 1581 1582 1583 1583 1583 1584 1584 1585 1585 1586 1586 1587 1587 1587 1588 1588 1588 1588 1588
1555 1557 1559 1560 1562 1563 1564 1566 1567 1568 1569 1570 1571 1572 1573 1574 1575 1575 1576 1577 1577 1578 1579 1579 1580 1581 1581 1582 1582 1583 1583 1584 1584 1585 1585 1585 1586 1586 1586 1587 1587 1587
1553 1555 1557 1558 1560 1561 1563 1564 1566 1567 1568 1569 1570 1571 1571 1572 1573 1574 1574 1575 1575 1576 1577 1578 1578 1579 1580 1580 1581 1581 1582 1582 1583 1583 1584 1584 1584 1585 1585 1585 1586 1586
1551 1553 1555 1556 1558 1559 1561 1563 1564 1565 1566 1567 1568 1569 1570 1571 1571 1572 1573 1573 1574 1575 1576 1576 1577 1578 1578 1579 1579 1580 1580 1581 1581 1582 1582 1583 1583 1583 1584 1584 1584 1584
1549 1551 1553 1554 1556 1558 1559 1561 1562 1563 1564 1565 1567 1567 1568 1569 1570 1571 1571 1572 1573 1573 1574 1575 1575 1576 1577 1577 1578 1578 1579 1579 1580 1580 1581 1581 1581 1582 1582 1582 1583 1583
1547 1550 1551 1553 1555 1556 1557 1559 1560 1561 1562 1563 1565 1565 1566 1567 1568 1569 1570 1570 1571 1572 1572 1573 1574 1574 1575 1576 1576 1577 1577 1578 1578 1579 1579 1579 1580 1580 1580 1581 1581 1581
1546 1548 1550 1552 1553 1554 1555 1556 1558 1559 1560 1562 1563 1563 1565 1566 1567 1568 1569 1569 1570 1570 1571 1572 1572 1573 1574 1574 1575 1575 1576 1576 1577 1577 1578 1578 1578 1579 1579 1579 1579 1580
1543 1546 1548 1550 1551 1552 1553 1554 1555 1557 1558 1560 1561 1562 1563 1564 1566 1567 1567 1568 1569 1569 1570 1570 1571 1571 1572 1573 1573 1574 1574 1575 1575 1575 1576 1576 1576 1577 1577 1577 1578 1578
1541 1543 1545 1547 1549 1550 1551 1552 1553 1554 1556 1558 1559 1560 1561 1562 1564 1565 1565 1567 1567 1568 1568 1569 1569 1570 1570 1571 1572 1572 1573 1573 1573 1574 1574 1574 1575 1575 1575 1576 1576 1576
1539 1541 1542 1544 1547 1547 1548 1548 1549 1550 1552 1554 1556 1558 1559 1560 1562 1562 1563 1564 1565 1566 1566 1566 1567 1568 1569 1569 1570 1570 1571 1571 1571 1572 1572 1572 1573 1573 1573 1574 1574 1575
1537 1538 1540 1542 1544 1545 1545 1544 1545 1547 1549 1550 1552 1554 1556 1558 1559 1560 1561 1561 1562 1563 1563 1564 1565 1566 1566 1567 1567 1568 1568 1569 1569 1569 1570 1570 1570 1571 1571 1571 1572 1573
1535 1536 1538 1539 1542 1544 1545 1544 1544 1545 1546 1548 1551 1553 1554 1555 1555 1557 1558 1558 1559 1560 1561 1561 1562 1563 1564 1565 1565 1565 1566 1566 1567 1567 1567 1568 1568 1568 1569 1569 1570 1570
1532 1534 1535 1537 1538 1541 1544 1544 1543 1542 1543 1546 1549 1551 1552 1552 1552 1553 1554 1555 1556 1557 1558 1559 1559 1561 1562 1562 1563 1563 1563 1564 1564 1564 1565 1565 1565 1566 1566 1567 1567 1568
1531 1532 1533 1534 1535 1538 1541 1543 1542 1541 1543 1544 1545 1548 1551 1551 1550 1550 1550 1551 1552 1553 1554 1555 1556 1557 1558 1559 1560 1560 1561 1561 1561 1561 1562 1562 1563 1563 1564 1564 1565 1565
1529 1530 1531 1532 1533 1535 1537 1540 1540 1540 1542 1543 1543 1546 1549 1549 1548 1548 1548 1548 1549 1550 1551 1551 1552 1553 1554 1555 1556 1557 1557 1558 1558 1558 1558 1559 1559 1560 1561 1561 1562 1563
1528 1529 1530 1531 1532 1533 1535 1537 1538 1539 1540 1542 1542 1544 1545 1545 1545 1545 1545 1546 1546 1547 1548 1548 1549 1550 1550 1551 1552 1553 1553 1554 1554 1554 1555 1555 1556 1557 1557 1558 1559 1560
1527 1528 1529 1529 1530 1532 1533 1534 1535 1536 1538 1539 1540 1541 1541 1542 1541 1541 1541 1542 1543 1543 1544 1545 1545 1546 1547 1548 1549 1549 1550 1550 1551 1551 1551 1551 1552 1553 1554 1555 1556 1557
1526 1527 1527 1528 1529 1529 1530 1532 1532 1533 1534 1535 1536 1537 1537 1537 1538 1537 1537 1538 1539 1539 1540 1541 1541 1543 1544 1545 1546 1546 1546 1546 1546 1546 1546 1547 1548 1549 1551 1552 1552 1553